Regional Weather Roundup
Issued by NWS

Home | Current Version | Previous Version | Graphics & Text | Print | Product List | Glossary On
Versions: 1 2 3 4 5 6 7 8 9 10 11 12 13 14 15 16 17 18 19 20 21 22 23 24 25 26 27 28 29 30 31 32 33 34 35 36 37 38 39 40 41 42 43 44 45 46 47 48 49 50
000
ASUS43 KDTX 280710
RWRMI
MICHIGAN HOURLY REGIONAL WEATHER ROUNDUP
NATIONAL WEATHER SERVICE DETROIT/PONTIAC MI
300 AM EDT TUE APR 28 2015

NOTE: "FAIR" INDICATES FEW OR NO CLOUDS BELOW 12,000 FEET WITH NO
SIGNIFICANT WEATHER AND/OR OBSTRUCTION TO VISIBILITY.

MIZ047>049-052>055-059>063-066>070-074>076-081>083-280800-
SOUTHEAST LOWER MICHIGAN

CITY           SKY/WX    TMP DP  RH WIND       PRES   REMARKS
ADRIAN         CLEAR     33  31  92 N3        30.09S
ALMA           CLEAR     38  34  86 CALM      30.11S
ANN ARBOR      PTCLDY    32  30  92 N3        30.09S
BAD AXE        CLOUDY    33  31  92 CALM      30.10F
CARO           CLEAR     30  29  95 CALM      30.10F
DETROIT CITY   PTCLDY    36  31  82 CALM      30.10S
DETROIT        MOCLDY    41  33  73 N5        30.10F
FLINT          CLEAR     41  31  67 CALM      30.10F
GROSSE ILE     CLEAR     37  34  87 CALM      30.08S
HILLSDALE      CLEAR     35  35  99 CALM      30.08S
HOWELL         CLEAR     37  33  82 CALM      30.09S

CITY           SKY/WX    TMP DP  RH WIND       PRES   REMARKS
JACKSON        CLEAR     32  30  92 CALM      30.09S
LAMBERTVILLE   PTCLDY    36  32  87 CALM      30.09F
LANSING        PTCLDY    41  31  67 E3        30.11F
LAPEER         FAIR      30  30  98 CALM      30.09F
MASON          CLEAR     32  30  92 CALM      30.10S
MONROE         PTCLDY    36  34  93 CALM      30.08S
PONTIAC        PTCLDY    35  30  82 CALM      30.08F
PORT HOPE        N/A     42  36  79 N5        30.08F
PORT HURON     CLEAR     32  30  93 CALM      30.09F
TRI CITIES     CLEAR     41  34  76 CALM      30.11F
MIDLAND        FAIR      37  34  90 CALM      30.10F
TROY           CLEAR     41  32  70 CALM      30.10F
SAGINAW HB     CLEAR     36  32  87 CALM      30.10F
$$
MIZ043>046-050>051-056>058-064>065-071>073-077>080-280800-
SOUTHWEST LOWER MICHIGAN

CITY           SKY/WX    TMP DP  RH WIND       PRES   REMARKS
BATTLE CREEK   CLEAR     37  32  82 CALM      30.09S
BENTON HARBOR  CLEAR     33  31  92 CALM      30.10F
BIG RAPIDS     CLEAR     35  32  87 CALM      30.10S
COLDWATER      CLEAR     32  30  92 W6        30.08F WCI  26
FREMONT        FAIR      40  31  69 CALM      30.09S
HOLLAND        CLEAR     38  34  85 CALM      30.10F
GRAND RAPIDS   CLEAR     38  33  82 E3        30.09S
IONIA          FAIR      41  33  73 E9        30.09S
KALAMAZOO      CLEAR     37  33  85 CALM      30.09S
LUDINGTON      CLEAR     37  34  86 CALM      30.13R
MARSHALL       CLEAR     33  32  96 CALM      30.08F
MOUNT PLEASANT CLEAR     36  34  92 CALM      30.10S
MUSKEGON       CLEAR     39  32  76 NW5       30.10S
SOUTH HAVEN    CLEAR     33  32  95 CALM      30.10S
$$
MIZ016>042-280800-
NORTHERN LOWER MICHIGAN

CITY           SKY/WX    TMP DP  RH WIND       PRES   REMARKS
BEAVER ISLAND  CLOUDY    41  33  74 CALM      30.15R
BELLAIRE       CLOUDY    44  34  67 CALM      30.13S
CADILLAC       CLEAR     31  29  90 CALM      30.09F
CHARLEVOIX     CLOUDY    39  34  84 N5        30.16S
FRANKFORT      CLEAR     41  31  66 CALM      30.13S
GAYLORD        CLOUDY    42  34  73 VRB3      30.10F
GRAYLING       CLOUDY    42  32  68 CALM      30.11F
HARBOR SPRINGS CLOUDY    43  34  69 CALM      30.13S
HOUGHTON LAKE  CLEAR     34  30  85 NE3       30.10S
MANISTEE       CLEAR     34  28  80 CALM      30.13S
OSCODA         CLOUDY    44  35  72 CALM      30.10S
PELLSTON       CLOUDY    43  34  70 CALM      30.13F
ROGERS CITY    CLOUDY    41  35  80 NE3       30.13F
TRAVERSE CITY  CLEAR     35  31  85 CALM      30.12S
$$
MIZ007>008-015-280800-
EASTERN UPPER MICHIGAN

CITY           SKY/WX    TMP DP  RH WIND       PRES   REMARKS
KINROSS        CLOUDY    37  36  93 N3        30.13F
MACKINAC ISLAN CLOUDY    39  33  79 N5        30.12F
NEWBERRY       CLEAR     35  32  90 NW5       30.14S WCI  30
S. S. MARIE    CLOUDY    42  34  73 N3        30.13S
MUNISING         N/A     31  27  85 S3        30.16F
$$
MIZ004>006-011>014-085-280800-
CENTRAL UPPER MICHIGAN

CITY           SKY/WX    TMP DP  RH WIND       PRES   REMARKS
MANISTIQUE     CLOUDY    39  32  78 NW6       30.15S WCI  34
ESCANABA       CLOUDY    37  30  75 N3        30.16S
MENOMINEE      CLEAR     37  30  75 N6        30.16S WCI  33
SAWYER-GWINN   CLEAR     30  27  89 CALM      30.15S
$$
MIZ001>003-009>011-084-280800-
WESTERN UPPER MICHIGAN

CITY           SKY/WX    TMP DP  RH WIND       PRES   REMARKS
IRON MOUNTAIN  CLEAR     33  27  78 CALM      30.15F
HOUGHTON       CLEAR     33  29  85 CALM      30.14S
COPPER HARBOR    N/A     34  30  85 SW6       30.14F WCI  29
IRONWOOD       CLEAR     34  32  93 E3        30.12F
$$

ABBREVIATIONS USED IN REMARKS
   TC - TEMPERATURE IN CELSIUS
  WCI - WIND CHILL INDEX
   HX - HEAT INDEX
  VSB - VISIBILITY



USA.gov is the U.S. government's official web portal to all federal, state and local government web resources and services.